QPF
0.00 0.00 0.00 0.01 0.00 0.00 0.05 0.05 0.02 0.00 0.00 0.01 0.01 0.03 0.05 0.01 0.00 0.02 0.03 0.02 0.01 0.02 0.02 0.04 0.01 0.02 0.03 0.01 0.04 0.03 0.03 0.16 0.16 0.35 0.33 0.38 0.33 0.29 0.24 0.18 0.14 0.16 0.09
0.00 0.00 0.01 0.01 0.00 0.04 0.06 0.02 0.03 0.01 0.00 0.00 0.00 0.02 0.00 0.00 0.00 0.00 0.00 0.00 0.01 0.01 0.00 0.01 0.03 0.03 0.01 0.02 0.05 0.09 0.05 0.11 0.10 0.22 0.36 0.34 0.27 0.19 0.18 0.14 0.13 0.17 0.07
0.00 0.00 0.01 0.01 0.02 0.04 0.04 0.06 0.05 0.01 0.00 0.00 0.00 0.00 0.00 0.00 0.00 0.00 0.00 0.00 0.00 0.01 0.00 0.01 0.01 0.02 0.01 0.01 0.07 0.11 0.08 0.05 0.02 0.06 0.26 0.19 0.17 0.17 0.19 0.12 0.15 0.10 0.01
0.00 0.00 0.01 0.03 0.02 0.02 0.03 0.04 0.04 0.01 0.00 0.00 0.00 0.00 0.00 0.00 0.00 0.00 0.00 0.00 0.00 0.01 0.03 0.05 0.04 0.01 0.02 0.02 0.04 0.06 0.05 0.02 0.02 0.05 0.12 0.14 0.16 0.19 0.10 0.08 0.09 0.02 0.00
0.00 0.00 0.01 0.02 0.00 0.02 0.01 0.01 0.03 0.04 0.01 0.00 0.00 0.00 0.00 0.00 0.00 0.00 0.00 0.00 0.00 0.01 0.04 0.09 0.09 0.06 0.05 0.02 0.04 0.05 0.02 0.01 0.03 0.03 0.05 0.12 0.17 0.08 0.07 0.06 0.02 0.00 0.00
0.00 0.00 0.00 0.01 0.00 0.02 0.01 0.00 0.01 0.01 0.03 0.02 0.01 0.00 0.00 0.00 0.00 0.00 0.00 0.00 0.01 0.01 0.01 0.01 0.00 0.00 0.00 0.00 0.01 0.01 0.02 0.02 0.03 0.02 0.03 0.11 0.14 0.05 0.05 0.03 0.00 0.00 0.01
0.00 0.00 0.00 0.00 0.00 0.03 0.00 0.00 0.01 0.01 0.02 0.03 0.04 0.01 0.00 0.00 0.00 0.00 0.00 0.00 0.01 0.01 0.01 0.00 0.00 0.01 0.01 0.00 0.00 0.00 0.03 0.06 0.04 0.03 0.04 0.07 0.08 0.07 0.04 0.00 0.00 0.00 0.00
0.00 0.00 0.00 0.00 0.00 0.01 0.01 0.01 0.01 0.03 0.03 0.01 0.01 0.00 0.00 0.00 0.00 0.00 0.00 0.00 0.01 0.02 0.02 0.03 0.02 0.02 0.01 0.01 0.02 0.03 0.06 0.02 0.05 0.09 0.11 0.12 0.11 0.05 0.01 0.00 0.00 0.00 0.00
0.00 0.00 0.00 0.00 0.00 0.00 0.00 0.01 0.01 0.01 0.00 0.00 0.00 0.00 0.02 0.01 0.00 0.00 0.01 0.01 0.01 0.02 0.03 0.03 0.05 0.01 0.00 0.01 0.01 0.03 0.01 0.01 0.05 0.06 0.09 0.08 0.06 0.02 0.00 0.00 0.00 0.00 0.00
0.00 0.00 0.00 0.00 0.00 0.00 0.00 0.00 0.00 0.01 0.01 0.00 0.01 0.00 0.05 0.03 0.01 0.01 0.03 0.01 0.01 0.01 0.03 0.02 0.02 0.00 0.00 0.00 0.01 0.00 0.00 0.00 0.00 0.01 0.01 0.01 0.00 0.00 0.00 0.00 0.00 0.00 0.00
0.00 0.00 0.00 0.00 0.00 0.00 0.00 0.00 0.00 0.00 0.00 0.00 0.00 0.01 0.00 0.00 0.00 0.00 0.01 0.01 0.01 0.01 0.01 0.00 0.00 0.00 0.00 0.00 0.03 0.01 0.00 0.00 0.00 0.00 0.00 0.00 0.00 0.00 0.00 0.01 0.00 0.00 0.00
0.00 0.00 0.00 0.00 0.00 0.00 0.00 0.00 0.00 0.00 0.00 0.00 0.00 0.01 0.00 0.00 0.00 0.00 0.01 0.02 0.01 0.02 0.01 0.00 0.00 0.00 0.00 0.00 0.00 0.00 0.00 0.00 0.00 0.00 0.00 0.00 0.00 0.00 0.00 0.00 0.00 0.00 0.00
0.00 0.00 0.00 0.00 0.00 0.00 0.00 0.00 0.00 0.00 0.00 0.00 0.00 0.00 0.01 0.00 0.00 0.00 0.00 0.00 0.00 0.04 0.02 0.01 0.00 0.00 0.00 0.00 0.00 0.00 0.00 0.00 0.00 0.00 0.00 0.00 0.00 0.00 0.00 0.00 0.00 0.00 0.00
0.00 0.00 0.00 0.00 0.00 0.00 0.00 0.00 0.00 0.00 0.00 0.00 0.00 0.00 0.00 0.00 0.00 0.00 0.00 0.00 0.00 0.00 0.00 0.00 0.00 0.00 0.00 0.00 0.00 0.00 0.00 0.00 0.00 0.00 0.00 0.00 0.00 0.00 0.00 0.00 0.00 0.00 0.00
0.00 0.00 0.00 0.00 0.00 0.00 0.00 0.00 0.00 0.00 0.00 0.00 0.00 0.00 0.00 0.00 0.00 0.00 0.00 0.00 0.00 0.00 0.00 0.00 0.00 0.00 0.00 0.00 0.00 0.00 0.00 0.00 0.00 0.00 0.00 0.00 0.00 0.00 0.00 0.00 0.00 0.00 0.00
0.00 0.00 0.00 0.00 0.00 0.00 0.00 0.00 0.00 0.00 0.00 0.00 0.00 0.00 0.00 0.00 0.00 0.00 0.00 0.00 0.00 0.00 0.00 0.00 0.00 0.00 0.00 0.00 0.00 0.00 0.00 0.00 0.00 0.00 0.00 0.00 0.00 0.00 0.00 0.00 0.00 0.00 0.00
0.00 0.00 0.00 0.00 0.00 0.00 0.00 0.00 0.00 0.00 0.00 0.00 0.00 0.00 0.00 0.00 0.00 0.00 0.00 0.00 0.00 0.00 0.00 0.00 0.00 0.00 0.00 0.00 0.00 0.00 0.00 0.00 0.00 0.00 0.00 0.00 0.00 0.00 0.00 0.00 0.00 0.00 0.00
0.00 0.00 0.00 0.00 0.00 0.00 0.00 0.00 0.00 0.00 0.00 0.00 0.00 0.00 0.00 0.00 0.00 0.00 0.00 0.00 0.00 0.00 0.00 0.00 0.00 0.00 0.00 0.00 0.00 0.00 0.00 0.00 0.00 0.00 0.00 0.00 0.00 0.00 0.00 0.00 0.00 0.00 0.00
0.00 0.00 0.00 0.00 0.00 0.00 0.00 0.00 0.00 0.00 0.00 0.00 0.00 0.00 0.00 0.00 0.00 0.00 0.00 0.00 0.00 0.00 0.00 0.00 0.00 0.00 0.00 0.00 0.00 0.00 0.00 0.00 0.00 0.00 0.00 0.00 0.00 0.00 0.00 0.00 0.00 0.00 0.00
0.00 0.00 0.00 0.00 0.00 0.00 0.00 0.00 0.00 0.00 0.00 0.00 0.00 0.00 0.00 0.00 0.00 0.00 0.00 0.00 0.00 0.00 0.00 0.00 0.00 0.00 0.00 0.00 0.00 0.00 0.00 0.00 0.00 0.00 0.00 0.00 0.00 0.00 0.00 0.00 0.00 0.00 0.00
0.00 0.00 0.00 0.00 0.00 0.00 0.00 0.00 0.00 0.00 0.00 0.00 0.00 0.00 0.00 0.00 0.00 0.00 0.00 0.00 0.00 0.00 0.00 0.00 0.00 0.00 0.00 0.00 0.00 0.00 0.00 0.00 0.00 0.00 0.00 0.00 0.00 0.00 0.00 0.00 0.00 0.00 0.00
0.00 0.00 0.00 0.00 0.00 0.00 0.00 0.00 0.00 0.00 0.00 0.00 0.00 0.00 0.00 0.00 0.00 0.00 0.00 0.00 0.00 0.00 0.00 0.00 0.00 0.00 0.00 0.00 0.00 0.00 0.00 0.00 0.00 0.00 0.00 0.00 0.00 0.00 0.00 0.00 0.00 0.00 0.00
0.00 0.00 0.00 0.00 0.00 0.00 0.00 0.00 0.00 0.00 0.00 0.00 0.00 0.00 0.00 0.00 0.00 0.00 0.00 0.00 0.00 0.00 0.00 0.00 0.00 0.00 0.00 0.00 0.00 0.00 0.00 0.00 0.00 0.00 0.00 0.00 0.00 0.00 0.00 0.00 0.00 0.00 0.00
0.00 0.00 0.00 0.00 0.00 0.00 0.00 0.00 0.00 0.00 0.00 0.00 0.00 0.00 0.00 0.00 0.00 0.00 0.00 0.00 0.00 0.00 0.00 0.00 0.00 0.00 0.00 0.00 0.00 0.00 0.00 0.00 0.00 0.00 0.00 0.00 0.00 0.00 0.00 0.00 0.00 0.00 0.00
0.00 0.00 0.00 0.00 0.00 0.01 0.00 0.00 0.00 0.00 0.00 0.00 0.00 0.00 0.00 0.00 0.00 0.00 0.00 0.00 0.00 0.00 0.00 0.00 0.00 0.00 0.00 0.00 0.00 0.00 0.00 0.00 0.00 0.00 0.00 0.00 0.00 0.00 0.00 0.00 0.00 0.00 0.02
0.00 0.00 0.00 0.00 0.00 0.00 0.00 0.00 0.00 0.00 0.00 0.00 0.00 0.00 0.00 0.00 0.00 0.00 0.00 0.00 0.00 0.00 0.00 0.00 0.00 0.00 0.00 0.00 0.00 0.00 0.00 0.00 0.00 0.00 0.00 0.00 0.00 0.00 0.00 0.00 0.00 0.01 0.02
MSLP
1005.19 1005.47 1005.70 1005.93 1006.18 1006.38 1006.68 1006.87 1006.86 1007.12 1007.32 1007.42 1007.43 1007.60 1007.88 1008.11 1008.22 1008.43 1008.35 1008.39 1008.82 1008.98 1009.29 1009.32 1009.51 1009.45 1009.61 1009.90 1010.43 1010.70 1011.17 1011.50 1012.33 1013.20 1013.77 1014.67 1015.53 1016.52 1017.65 1018.27 1018.98 1019.67 1020.38
1004.94 1005.27 1005.57 1005.91 1006.08 1006.38 1006.56 1006.60 1006.88 1006.96 1007.17 1007.29 1007.49 1007.74 1008.24 1008.34 1008.42 1008.70 1008.65 1008.57 1009.11 1009.43 1009.54 1009.53 1009.50 1009.70 1010.12 1010.47 1010.53 1011.04 1011.54 1011.75 1012.58 1013.17 1013.97 1015.31 1016.23 1017.12 1017.87 1018.71 1019.51 1020.39 1020.95
1004.68 1005.09 1005.56 1005.90 1006.08 1006.38 1006.54 1006.80 1006.92 1006.96 1007.11 1007.30 1007.45 1007.86 1008.62 1008.57 1008.75 1008.91 1008.96 1009.12 1009.34 1009.64 1009.84 1009.90 1009.86 1009.95 1010.75 1011.08 1011.13 1011.38 1012.02 1012.40 1013.33 1013.78 1014.82 1015.78 1016.74 1017.63 1018.35 1019.25 1019.96 1020.75 1021.08
1004.49 1004.89 1005.45 1005.88 1006.12 1006.31 1006.49 1006.74 1006.94 1007.04 1007.15 1007.48 1007.61 1008.38 1008.89 1009.14 1009.21 1009.30 1009.25 1009.48 1009.67 1009.56 1010.00 1010.07 1010.16 1010.57 1011.07 1011.49 1011.48 1011.83 1012.41 1012.98 1013.86 1014.52 1015.36 1016.41 1017.29 1018.28 1018.77 1019.49 1020.45 1021.09 1021.29
1004.38 1004.82 1005.40 1005.97 1006.13 1006.27 1006.38 1006.60 1006.93 1007.14 1007.29 1007.61 1008.20 1008.90 1009.21 1009.44 1009.57 1009.66 1009.77 1009.85 1010.04 1009.94 1009.99 1010.22 1010.64 1011.01 1011.39 1011.71 1011.95 1012.16 1012.85 1013.43 1014.13 1015.08 1015.85 1016.81 1017.63 1018.36 1019.02 1019.86 1020.17 1020.69 1021.59
1004.35 1004.71 1005.34 1005.73 1006.05 1006.39 1006.47 1006.65 1006.96 1007.29 1007.45 1007.70 1008.06 1008.76 1009.44 1009.82 1010.28 1010.31 1010.10 1009.89 1010.17 1010.18 1010.29 1010.78 1011.33 1011.71 1012.12 1012.38 1012.62 1013.07 1013.38 1013.76 1014.40 1015.34 1016.24 1017.06 1017.88 1018.58 1019.35 1019.76 1019.91 1020.43 1021.03
1004.32 1004.76 1005.28 1005.73 1005.99 1006.40 1006.43 1006.57 1007.02 1007.47 1007.80 1008.02 1008.54 1009.13 1009.79 1010.31 1010.80 1010.81 1010.67 1010.28 1010.40 1010.51 1010.92 1011.55 1011.96 1012.26 1012.58 1013.08 1013.41 1013.83 1014.23 1014.66 1015.01 1015.45 1016.27 1017.19 1017.96 1018.74 1019.18 1019.43 1019.60 1019.68 1020.07
1004.09 1004.59 1005.07 1005.49 1005.91 1006.34 1006.47 1006.74 1007.21 1007.73 1008.24 1008.75 1009.21 1009.57 1010.09 1010.78 1011.34 1011.35 1011.13 1010.74 1010.85 1010.75 1011.42 1011.49 1011.93 1012.28 1013.12 1013.23 1013.86 1014.43 1015.06 1015.56 1015.98 1016.22 1016.63 1017.47 1018.08 1018.74 1018.75 1018.69 1018.99 1019.66 1020.62
1003.70 1004.35 1004.86 1005.35 1005.92 1006.37 1006.69 1007.06 1007.38 1007.98 1008.82 1009.28 1009.62 1010.14 1010.54 1011.32 1011.65 1011.70 1011.49 1010.91 1010.94 1011.20 1011.53 1012.08 1012.17 1012.67 1013.62 1013.79 1014.17 1014.83 1015.59 1016.50 1016.82 1017.00 1017.46 1017.95 1018.58 1018.70 1018.36 1018.87 1019.31 1019.48 1020.00
1003.30 1004.01 1004.64 1005.17 1005.88 1006.37 1006.96 1007.27 1007.48 1007.71 1008.39 1009.12 1009.87 1010.53 1010.93 1011.44 1011.79 1011.88 1011.61 1011.74 1011.76 1011.96 1012.22 1012.73 1013.16 1013.88 1014.38 1014.51 1014.61 1014.90 1015.63 1016.48 1016.95 1017.64 1018.48 1018.90 1018.55 1018.86 1018.92 1018.42 1018.52 1018.40 1019.06
1003.04 1003.78 1004.52 1005.10 1005.79 1006.43 1007.11 1007.49 1007.56 1007.64 1008.17 1009.07 1009.83 1010.44 1010.96 1011.50 1011.93 1012.05 1012.15 1012.23 1012.14 1012.47 1012.67 1013.29 1014.39 1014.53 1014.77 1014.90 1014.97 1015.08 1015.43 1016.02 1016.55 1017.04 1017.66 1018.12 1018.37 1018.71 1018.64 1018.55 1018.33 1017.94 1018.96
1002.77 1003.50 1004.29 1005.12 1005.52 1006.33 1007.06 1007.46 1007.63 1007.91 1008.29 1008.91 1009.56 1010.14 1011.01 1011.48 1012.00 1012.27 1012.44 1012.57 1012.52 1012.64 1013.12 1013.62 1014.60 1014.92 1015.14 1015.16 1015.06 1015.34 1015.78 1015.79 1015.93 1016.29 1016.65 1017.21 1017.69 1018.25 1019.01 1019.24 1019.61 1019.53 1019.72
1002.45 1003.28 1004.15 1004.96 1005.43 1006.11 1006.81 1007.35 1007.55 1007.95 1008.08 1008.43 1008.73 1009.24 1010.17 1010.77 1011.69 1012.51 1012.60 1012.69 1012.82 1012.88 1012.89 1013.70 1014.76 1015.22 1015.42 1015.68 1015.84 1015.92 1015.91 1015.56 1015.74 1016.02 1016.49 1017.09 1017.82 1018.61 1019.45 1019.80 1020.44 1020.82 1020.93
1002.19 1003.06 1003.96 1004.69 1005.28 1005.92 1006.45 1007.05 1007.08 1007.43 1007.62 1007.85 1008.14 1008.66 1009.51 1010.32 1011.10 1011.97 1012.66 1012.88 1013.07 1013.28 1013.64 1014.34 1014.85 1014.96 1015.31 1015.50 1016.12 1016.06 1015.18 1015.21 1015.31 1015.62 1016.27 1017.08 1018.19 1018.83 1018.95 1019.28 1019.79 1020.38 1020.97
1001.95 1002.72 1003.55 1004.29 1005.15 1005.61 1005.92 1006.42 1006.71 1007.19 1007.41 1007.80 1008.03 1008.47 1009.21 1009.75 1010.43 1011.14 1011.81 1012.09 1012.36 1012.75 1013.41 1014.18 1014.32 1014.24 1014.41 1014.74 1015.12 1015.22 1015.05 1015.49 1015.35 1015.60 1016.30 1017.09 1017.51 1017.94 1018.47 1019.04 1019.40 1019.93 1020.35
1001.40 1002.15 1002.84 1003.40 1004.52 1004.95 1005.59 1006.57 1007.51 1007.68 1007.90 1008.31 1008.45 1008.64 1009.20 1009.64 1010.72 1011.59 1012.06 1012.30 1012.58 1013.09 1013.02 1013.01 1013.14 1013.30 1013.46 1013.76 1014.06 1014.47 1014.71 1015.24 1015.08 1015.50 1016.10 1016.49 1016.83 1017.40 1018.16 1018.76 1019.08 1019.28 1019.75
1000.48 1001.26 1001.99 1002.68 1003.43 1004.04 1004.82 1005.59 1006.65 1008.40 1008.62 1008.94 1009.10 1009.35 1009.92 1010.35 1011.06 1011.88 1012.45 1012.79 1013.07 1013.26 1012.45 1012.30 1012.34 1012.58 1012.73 1013.01 1013.37 1013.68 1014.02 1014.55 1014.94 1015.34 1015.69 1016.09 1016.47 1016.92 1018.08 1018.22 1018.53 1018.88 1019.47
1000.00 1000.56 1001.20 1001.96 1002.41 1003.11 1003.88 1004.65 1005.33 1006.22 1007.48 1008.47 1009.42 1009.56 1010.16 1010.68 1011.32 1011.98 1012.52 1012.98 1013.38 1013.37 1011.95 1011.42 1011.54 1011.81 1012.11 1012.34 1012.63 1012.86 1013.21 1013.77 1014.46 1014.81 1015.09 1015.57 1016.04 1016.40 1017.15 1017.31 1017.80 1018.37 1019.03
999.20 999.93 1000.56 1001.25 1001.65 1002.27 1002.93 1003.65 1004.23 1004.76 1005.53 1006.52 1007.54 1009.61 1010.32 1011.08 1011.55 1012.02 1012.16 1011.48 1011.41 1011.58 1011.45 1010.97 1010.89 1011.09 1011.39 1011.63 1011.97 1012.26 1012.58 1012.92 1013.64 1014.19 1014.45 1014.90 1015.34 1015.64 1016.20 1016.54 1017.00 1017.79 1018.52
998.39 998.91 999.85 1000.37 1000.91 1001.78 1002.20 1002.69 1003.14 1003.68 1004.35 1005.00 1005.86 1007.24 1008.72 1010.54 1010.97 1011.38 1011.39 1010.82 1010.14 1010.01 1010.05 1010.08 1010.15 1010.46 1010.67 1011.04 1011.27 1011.63 1011.97 1012.56 1013.04 1013.51 1013.73 1014.11 1014.57 1015.03 1015.36 1015.90 1016.62 1017.76 1018.67
997.17 998.29 999.29 999.55 1000.02 1000.81 1001.39 1001.87 1002.27 1002.74 1003.25 1003.97 1004.84 1005.98 1006.48 1008.45 1008.62 1008.86 1009.11 1009.12 1008.92 1008.43 1008.26 1008.43 1008.75 1009.19 1009.73 1010.01 1010.37 1010.72 1011.09 1011.50 1012.14 1012.59 1012.90 1013.30 1013.82 1014.25 1014.66 1015.01 1015.74 1017.01 1018.28
996.04 996.91 998.39 998.51 999.18 999.84 1000.37 1000.99 1001.53 1001.89 1002.33 1002.95 1003.89 1005.26 1006.44 1007.05 1006.83 1006.76 1006.92 1007.24 1007.61 1007.67 1007.58 1007.75 1007.87 1008.04 1008.34 1008.79 1009.16 1009.54 1009.80 1010.23 1010.82 1011.50 1012.03 1012.56 1013.18 1013.66 1014.03 1014.42 1015.37 1016.74 1017.80
995.38 995.96 997.19 997.51 998.01 998.87 999.80 1000.07 1000.48 1000.92 1001.33 1001.92 1002.63 1003.56 1005.23 1005.25 1005.22 1004.93 1005.07 1005.44 1005.99 1006.52 1006.78 1006.95 1007.10 1007.21 1007.38 1007.57 1008.04 1008.53 1008.86 1009.19 1009.66 1010.30 1010.86 1011.14 1011.59 1012.53 1013.24 1013.82 1014.54 1016.12 1018.00
994.83 995.35 996.04 996.73 997.01 997.58 998.35 999.01 999.36 999.98 1000.26 1000.77 1001.35 1001.99 1002.53 1003.42 1003.79 1003.89 1003.86 1004.26 1004.72 1005.11 1005.57 1005.88 1006.05 1006.17 1006.47 1006.79 1007.12 1007.58 1007.74 1007.98 1008.29 1008.65 1009.54 1010.26 1011.03 1012.07 1012.77 1013.61 1014.47 1016.09 1018.23
994.17 994.82 995.30 995.94 996.22 996.83 997.34 997.99 998.52 998.77 999.46 999.93 1000.13 1000.57 1001.03 1001.50 1002.34 1002.71 1002.85 1003.08 1003.53 1004.07 1004.43 1004.76 1005.11 1005.35 1005.60 1005.88 1006.07 1006.36 1006.67 1007.42 1007.76 1008.04 1008.81 1009.72 1010.22 1010.74 1011.81 1013.10 1014.45 1016.15 1018.47
993.79 994.39 994.94 995.23 995.78 996.28 996.86 997.36 997.88 998.45 998.67 998.86 999.49 999.62 999.83 1000.18 1000.58 1001.36 1001.84 1002.05 1002.25 1002.65 1003.18 1003.59 1003.98 1004.31 1004.56 1004.87 1005.13 1005.52 1006.39 1007.09 1007.50 1008.05 1007.89 1008.86 1009.87 1010.84 1011.97 1013.41 1014.91 1016.26 1017.55
Thickness
5678 5673 5668 5663 5658 5654 5649 5646 5644 5641 5638 5636 5637 5635 5633 5631 5631 5630 5632 5633 5628 5627 5626 5626 5626 5631 5631 5633 5631 5632 5633 5634 5629 5626 5625 5623 5622 5619 5615 5615 5616 5615 5613
5678 5673 5667 5662 5658 5653 5650 5649 5646 5643 5641 5639 5638 5637 5633 5632 5633 5631 5632 5635 5629 5625 5627 5628 5630 5631 5631 5631 5634 5633 5633 5635 5631 5628 5626 5620 5619 5616 5615 5615 5613 5609 5608
5679 5673 5666 5660 5656 5652 5650 5648 5646 5645 5643 5642 5641 5638 5632 5634 5632 5632 5633 5633 5631 5629 5628 5630 5632 5633 5626 5627 5632 5634 5632 5633 5630 5628 5623 5620 5618 5616 5614 5611 5609 5606 5607
5679 5674 5665 5660 5656 5655 5652 5649 5647 5646 5644 5641 5642 5636 5632 5630 5630 5632 5634 5634 5633 5635 5632 5633 5634 5632 5628 5626 5632 5634 5633 5631 5628 5626 5623 5618 5616 5612 5612 5610 5606 5605 5605
5679 5673 5666 5660 5659 5657 5654 5651 5649 5647 5645 5641 5637 5633 5631 5630 5630 5630 5632 5633 5633 5636 5636 5634 5633 5632 5631 5631 5633 5634 5631 5630 5627 5622 5619 5615 5615 5613 5611 5608 5609 5608 5601
5678 5674 5667 5663 5660 5656 5654 5652 5649 5647 5645 5642 5639 5634 5630 5628 5624 5628 5632 5635 5636 5637 5637 5634 5631 5630 5628 5628 5629 5628 5630 5628 5626 5623 5619 5616 5614 5613 5610 5609 5612 5608 5603
5679 5675 5668 5663 5660 5656 5657 5655 5650 5646 5643 5640 5636 5633 5628 5626 5622 5625 5629 5635 5637 5638 5635 5632 5630 5630 5629 5628 5626 5625 5623 5623 5624 5624 5621 5618 5615 5612 5611 5612 5613 5614 5611
5682 5677 5672 5667 5662 5659 5658 5654 5649 5645 5639 5634 5630 5630 5628 5624 5619 5622 5627 5635 5636 5639 5636 5638 5635 5635 5629 5631 5627 5624 5620 5619 5619 5618 5619 5617 5616 5613 5614 5617 5617 5612 5607
5686 5680 5676 5672 5665 5661 5658 5654 5650 5644 5635 5632 5629 5626 5624 5620 5617 5620 5627 5636 5637 5637 5638 5636 5637 5635 5627 5629 5628 5623 5619 5615 5616 5617 5617 5616 5614 5614 5615 5614 5611 5613 5610
5691 5686 5682 5677 5669 5664 5659 5656 5653 5650 5644 5638 5631 5625 5621 5617 5615 5619 5628 5629 5631 5632 5633 5632 5628 5626 5622 5625 5627 5626 5621 5617 5618 5616 5612 5610 5613 5614 5616 5620 5621 5620 5616
5697 5691 5685 5681 5673 5668 5661 5658 5657 5656 5651 5642 5635 5631 5626 5620 5616 5619 5624 5628 5630 5628 5630 5629 5622 5620 5622 5625 5628 5630 5628 5626 5622 5622 5619 5618 5617 5615 5616 5618 5620 5624 5615
5700 5695 5688 5682 5679 5672 5665 5662 5661 5658 5654 5648 5642 5638 5631 5627 5623 5620 5622 5626 5629 5630 5628 5628 5622 5620 5621 5625 5631 5628 5628 5630 5631 5629 5628 5625 5622 5619 5613 5612 5609 5610 5608
5702 5696 5690 5685 5682 5676 5669 5664 5664 5662 5661 5658 5655 5651 5644 5642 5635 5624 5625 5629 5631 5633 5636 5630 5622 5621 5623 5624 5624 5626 5626 5634 5633 5630 5627 5625 5621 5616 5609 5607 5602 5599 5597
5702 5697 5692 5687 5683 5679 5676 5671 5672 5669 5668 5667 5664 5660 5656 5651 5647 5643 5639 5638 5635 5637 5632 5631 5630 5631 5626 5630 5626 5627 5638 5638 5636 5634 5630 5625 5616 5612 5611 5609 5604 5598 5591
5704 5700 5695 5691 5685 5683 5683 5681 5679 5677 5676 5674 5672 5669 5663 5660 5659 5655 5651 5650 5649 5646 5642 5637 5637 5639 5639 5637 5635 5636 5638 5635 5635 5634 5628 5621 5618 5615 5611 5606 5602 5596 5591
5707 5703 5700 5697 5690 5690 5686 5682 5670 5672 5674 5671 5673 5674 5671 5667 5659 5654 5652 5649 5646 5643 5646 5646 5645 5645 5644 5643 5642 5639 5639 5634 5637 5633 5628 5625 5621 5617 5611 5605 5602 5599 5593
5715 5711 5708 5702 5698 5695 5692 5688 5683 5671 5667 5667 5668 5669 5665 5665 5658 5652 5648 5644 5642 5641 5652 5652 5651 5650 5650 5649 5647 5645 5642 5640 5638 5634 5631 5627 5623 5618 5609 5605 5601 5597 5590
5720 5712 5714 5708 5707 5703 5698 5695 5694 5688 5680 5677 5665 5669 5663 5659 5655 5651 5647 5644 5644 5641 5656 5658 5656 5654 5652 5651 5650 5649 5648 5644 5638 5635 5632 5627 5622 5618 5610 5608 5602 5594 5586
5725 5720 5717 5713 5713 5708 5705 5701 5699 5698 5694 5689 5685 5664 5660 5654 5651 5647 5647 5659 5658 5656 5656 5659 5660 5659 5656 5655 5653 5652 5650 5647 5641 5635 5632 5627 5622 5618 5611 5607 5601 5586 5579
5729 5725 5719 5717 5715 5709 5708 5705 5703 5701 5699 5697 5694 5687 5676 5661 5663 5659 5654 5658 5665 5665 5665 5664 5665 5663 5661 5658 5657 5655 5651 5645 5640 5635 5632 5628 5623 5616 5611 5605 5597 5584 5574
5735 5728 5720 5722 5718 5713 5710 5707 5706 5703 5701 5700 5698 5697 5687 5677 5676 5674 5670 5668 5670 5677 5679 5679 5677 5673 5669 5666 5663 5659 5654 5650 5643 5638 5633 5628 5623 5616 5610 5605 5596 5583 5571
5738 5733 5722 5724 5722 5717 5714 5711 5708 5706 5705 5702 5700 5698 5678 5684 5685 5684 5682 5679 5678 5679 5682 5681 5680 5680 5677 5673 5669 5665 5661 5655 5648 5641 5634 5628 5622 5615 5609 5602 5592 5578 5566
5736 5733 5725 5725 5725 5717 5713 5714 5711 5710 5708 5706 5704 5701 5689 5689 5689 5692 5691 5689 5686 5683 5682 5682 5681 5680 5679 5678 5673 5668 5662 5657 5651 5644 5637 5634 5629 5617 5608 5601 5592 5576 5558
5734 5730 5727 5724 5725 5723 5719 5715 5716 5709 5711 5709 5706 5704 5702 5694 5691 5692 5694 5693 5691 5689 5686 5683 5682 5681 5679 5676 5673 5668 5666 5662 5657 5652 5643 5633 5624 5612 5604 5594 5584 5568 5547
5732 5728 5725 5722 5724 5722 5720 5717 5715 5715 5711 5709 5708 5707 5705 5703 5695 5692 5694 5695 5692 5689 5687 5686 5683 5681 5678 5675 5674 5670 5667 5661 5653 5649 5638 5629 5624 5617 5605 5590 5576 5557 5533
5726 5723 5720 5721 5719 5718 5714 5712 5711 5709 5709 5711 5706 5706 5706 5703 5701 5696 5693 5693 5693 5692 5689 5687 5684 5681 5678 5674 5672 5668 5661 5654 5648 5642 5640 5629 5615 5605 5593 5577 5561 5546 5532